Location: Morisset
(33.1080°S, 151.4871°E)
Time: 08:06:08
(UTC+00:00)

ATLAS CENTAUR R/B - Pass Details

Date: 29 October 2020
Orbit: 478 x 667 km, 64.7° (Epoch: 22 November)

Event Time Altitude Azimuth Distance (km) Brightness Sun altitude
Rises 15:29:12 0° 195° (SSW) 3,025 5.6 -36.1°
Reaches altitude 10° 15:32:04 10° 178° (S) 2,088 4.8 -35.8°
Maximum altitude 15:35:41 21° 129° (SE) 1,447 4.0 -35.3°
Enters shadow 15:35:42 21° 129° (SE) 1,447 4.0 -35.3°
